TimeMDT,TemperatureF,Dew PointF,Humidity,Sea Level PressureIn,VisibilityMPH,Wind Direction,Wind SpeedMPH,Gust SpeedMPH,PrecipitationIn,Events,Conditions,WindDirDegrees,DateUTC
12:15 AM,69.6,28.4,22,30.04,10.0,NW,3.5,-,N/A,,Clear,320,2012-10-09 06:15:00
12:35 AM,61.5,32.0,33,30.05,10.0,Calm,Calm,-,N/A,,Clear,0,2012-10-09 06:35:00
12:55 AM,59.5,33.6,38,30.04,10.0,South,5.8,-,N/A,,Clear,170,2012-10-09 06:55:00
1:15 AM,59.4,31.8,35,30.05,10.0,SE,4.6,-,N/A,,Clear,140,2012-10-09 07:15:00
1:35 AM,61.2,30.9,32,30.05,10.0,SSE,3.5,-,N/A,,Clear,160,2012-10-09 07:35:00
2:15 AM,58.6,29.3,33,30.06,10.0,Calm,Calm,-,N/A,,Clear,0,2012-10-09 08:15:00
2:35 AM,59.9,29.5,32,30.07,10.0,NNW,3.5,-,N/A,,Clear,340,2012-10-09 08:35:00
2:55 AM,57.7,29.5,34,30.07,10.0,North,4.6,-,N/A,,Clear,10,2012-10-09 08:55:00
3:15 AM,58.3,29.7,34,30.07,10.0,Calm,Calm,-,N/A,,Clear,0,2012-10-09 09:15:00
3:35 AM,58.6,29.7,33,30.07,10.0,SSW,3.5,-,N/A,,Clear,210,2012-10-09 09:35:00
3:55 AM,59.7,30.0,32,30.07,10.0,West,5.8,-,N/A,,Clear,260,2012-10-09 09:55:00
4:15 AM,58.1,30.0,34,30.07,10.0,NW,5.8,-,N/A,,Clear,310,2012-10-09 10:15:00
4:35 AM,56.1,29.5,36,30.07,10.0,WNW,5.8,-,N/A,,Clear,300,2012-10-09 10:35:00
4:55 AM,56.1,29.3,36,30.07,10.0,NW,6.9,-,N/A,,Clear,320,2012-10-09 10:55:00
5:15 AM,55.9,29.5,36,30.07,10.0,WNW,8.1,-,N/A,,Clear,300,2012-10-09 11:15:00
5:35 AM,55.4,29.7,37,30.08,10.0,NW,6.9,-,N/A,,Clear,310,2012-10-09 11:35:00
6:15 AM,55.4,30.0,38,30.09,10.0,NNW,8.1,-,N/A,,Clear,340,2012-10-09 12:15:00
6:35 AM,54.9,30.2,39,30.10,10.0,NNW,6.9,-,N/A,,Clear,330,2012-10-09 12:35:00
6:55 AM,53.8,30.2,41,30.11,10.0,NNW,6.9,-,N/A,,Clear,330,2012-10-09 12:55:00
7:15 AM,54.5,30.6,40,30.10,10.0,NW,6.9,-,N/A,,Clear,310,2012-10-09 13:15:00
7:35 AM,54.3,30.6,40,30.11,10.0,NNW,4.6,-,N/A,,Clear,340,2012-10-09 13:35:00
8:15 AM,58.8,32.0,36,30.12,10.0,Calm,Calm,-,N/A,,Clear,0,2012-10-09 14:15:00
8:35 AM,58.5,31.8,37,30.13,10.0,SSE,3.5,-,N/A,,Clear,160,2012-10-09 14:35:00
8:55 AM,60.4,31.8,34,30.13,10.0,Calm,Calm,-,N/A,,Clear,0,2012-10-09 14:55:00
9:15 AM,64.4,32.7,31,30.14,10.0,Calm,Calm,-,N/A,,Clear,0,2012-10-09 15:15:00
9:35 AM,66.9,34.5,30,30.14,10.0,Calm,Calm,-,N/A,,Clear,0,2012-10-09 15:35:00
9:55 AM,69.3,35.2,29,30.14,10.0,East,3.5,-,N/A,,Clear,80,2012-10-09 15:55:00
10:15 AM,72.3,36.5,27,30.14,10.0,NNE,5.8,-,N/A,,Clear,20,2012-10-09 16:15:00
10:35 AM,71.1,36.5,28,30.14,10.0,Calm,Calm,-,N/A,,Clear,0,2012-10-09 16:35:00
10:55 AM,73.9,36.0,25,30.13,10.0,NE,4.6,-,N/A,,Clear,50,2012-10-09 16:55:00
11:15 AM,74.8,36.3,25,30.13,10.0,ENE,5.8,-,N/A,,Clear,60,2012-10-09 17:15:00
11:35 AM,75.6,36.3,24,30.13,10.0,ESE,3.5,-,N/A,,Clear,110,2012-10-09 17:35:00
11:55 AM,76.6,36.5,23,30.12,10.0,SE,5.8,-,N/A,,Clear,130,2012-10-09 17:55:00
12:15 PM,77.4,36.3,23,30.11,10.0,SSE,8.1,-,N/A,,Clear,160,2012-10-09 18:15:00
12:35 PM,77.2,35.2,22,30.11,10.0,Calm,Calm,-,N/A,,Clear,0,2012-10-09 18:35:00
12:55 PM,79.2,35.4,21,30.09,10.0,West,4.6,-,N/A,,Clear,260,2012-10-09 18:55:00
1:15 PM,80.1,34.9,20,30.08,10.0,SSE,5.8,-,N/A,,Clear,160,2012-10-09 19:15:00
1:35 PM,80.2,33.8,19,30.07,10.0,South,6.9,-,N/A,,Clear,170,2012-10-09 19:35:00
1:55 PM,81.0,32.4,17,30.06,10.0,SE,13.8,-,N/A,,Clear,130,2012-10-09 19:55:00
2:15 PM,80.8,32.0,17,30.05,10.0,SE,8.1,-,N/A,,Clear,140,2012-10-09 20:15:00
2:35 PM,82.0,32.0,16,30.04,10.0,SE,10.4,-,N/A,,Clear,140,2012-10-09 20:35:00
2:55 PM,80.6,31.3,17,30.04,10.0,South,4.6,-,N/A,,Clear,170,2012-10-09 20:55:00
3:15 PM,82.4,32.0,16,30.04,10.0,South,4.6,-,N/A,,Clear,170,2012-10-09 21:15:00
3:35 PM,82.2,32.0,16,30.03,10.0,SSE,9.2,-,N/A,,Clear,160,2012-10-09 21:35:00
4:15 PM,82.4,31.8,16,30.02,10.0,SSE,8.1,-,N/A,,Clear,160,2012-10-09 22:15:00
4:35 PM,82.2,31.8,16,30.02,10.0,SE,6.9,-,N/A,,Clear,140,2012-10-09 22:35:00
4:55 PM,82.0,31.3,16,30.02,10.0,SE,9.2,-,N/A,,Clear,140,2012-10-09 22:55:00
5:15 PM,81.5,31.1,16,30.02,10.0,SE,10.4,-,N/A,,Clear,140,2012-10-09 23:15:00
5:35 PM,81.1,30.9,16,30.02,10.0,SSE,9.2,-,N/A,,Clear,150,2012-10-09 23:35:00
5:55 PM,80.1,30.2,16,30.02,10.0,SSE,6.9,-,N/A,,Clear,150,2012-10-09 23:55:00
6:15 PM,79.0,30.6,17,30.02,10.0,SE,5.8,-,N/A,,Clear,130,2012-10-10 00:15:00
6:35 PM,76.5,31.6,19,30.02,10.0,SSE,5.8,-,N/A,,Clear,150,2012-10-10 00:35:00
6:55 PM,73.8,30.0,20,30.02,10.0,South,5.8,-,N/A,,Clear,170,2012-10-10 00:55:00
7:15 PM,72.0,28.9,20,30.03,10.0,SSW,4.6,-,N/A,,Clear,200,2012-10-10 01:15:00
7:35 PM,68.0,28.8,23,30.04,10.0,South,3.5,-,N/A,,Clear,170,2012-10-10 01:35:00
7:55 PM,64.9,28.2,25,30.05,10.0,SSW,4.6,-,N/A,,Clear,200,2012-10-10 01:55:00
8:15 PM,65.8,28.4,25,30.05,10.0,SSW,5.8,-,N/A,,Clear,210,2012-10-10 02:15:00
8:35 PM,64.4,28.8,26,30.06,10.0,SSW,8.1,-,N/A,,Clear,210,2012-10-10 02:35:00
8:55 PM,65.1,28.6,25,30.08,10.0,SSW,8.1,-,N/A,,Clear,210,2012-10-10 02:55:00
9:15 PM,64.9,28.4,25,30.08,10.0,SSW,6.9,-,N/A,,Clear,210,2012-10-10 03:15:00
9:35 PM,62.4,27.9,27,30.08,10.0,SW,8.1,-,N/A,,Clear,220,2012-10-10 03:35:00
9:55 PM,64.6,28.4,26,30.09,10.0,SSW,6.9,-,N/A,,Clear,200,2012-10-10 03:55:00
10:15 PM,60.3,28.0,29,30.09,10.0,SSW,5.8,-,N/A,,Clear,210,2012-10-10 04:15:00
10:35 PM,60.1,28.2,30,30.09,10.0,SSW,5.8,-,N/A,,Clear,200,2012-10-10 04:35:00
10:55 PM,59.5,28.0,30,30.09,10.0,South,4.6,-,N/A,,Clear,190,2012-10-10 04:55:00
11:15 PM,58.8,28.2,31,30.09,10.0,SSW,6.9,-,N/A,,Clear,200,2012-10-10 05:15:00
11:35 PM,59.4,28.4,31,30.09,10.0,SW,6.9,-,N/A,,Clear,230,2012-10-10 05:35:00
11:55 PM,59.7,28.2,30,30.10,10.0,SW,5.8,-,N/A,,Clear,220,2012-10-10 05:55:00